Buoy 46563

sailwx.info

Track history (hours):
 
Tides and Currents Weather Stations Pressure Air Temp Water Temp Dewpoint Dewpoint Depression Visibility Wind Speed Wind Dir Waves Ship Positions

Drifting buoy 46563

Last reported at 2014-Oct-25 13:00 UTC. Time now 2014-Oct-25 15:15 UTC.
Position N 24°41' W 124°16'.

Water temperature 23.3 ° C

Date/timePositionNaut miles runAvg speedWind from/ knotsBaromVisibWave heightAir tempDewpointWater temp
2014-Oct-25 13:00N 24°41' W 124°16'0 0.0 23.3
2014-Oct-25 12:00N 24°41' W 124°16'1 0.5 23.4
2014-Oct-25 11:00N 24°40' W 124°16'1 0.4 23.3
2014-Oct-25 09:00N 24°40' W 124°15'0 0.1 23.4
2014-Oct-25 05:00N 24°40' W 124°15'1 1.1 23.4
2014-Oct-25 04:00N 24°39' W 124°13'0 0.1 23.4
2014-Oct-25 01:00N 24°39' W 124°13'1 0.7 23.5
2014-Oct-24 23:00N 24°39' W 124°12'1 0.5 23.7
2014-Oct-24 22:00N 24°39' W 124°11'0 0.0 23.7
2014-Oct-24 21:00N 24°39' W 124°11'1 0.3 23.6
2014-Oct-24 17:00N 24°39' W 124°10'2 0.6 23.3
2014-Oct-24 14:00N 24°40' W 124°08'0 0.4 23.5
2014-Oct-24 13:00N 24°40' W 124°08'2 0.5 23.5
2014-Oct-24 09:00N 24°41' W 124°06'0 0.0 23.5
2014-Oct-24 06:00N 24°41' W 124°06'1 1.1 23.5
2014-Oct-24 05:00N 24°42' W 124°05'0 0.0 23.5
2014-Oct-24 04:00N 24°42' W 124°05'0 0.1 23.5
2014-Oct-24 01:00N 24°42' W 124°05'1 0.3 23.5
2014-Oct-23 23:00N 24°42' W 124°04'0 0.0 23.6
2014-Oct-23 22:00N 24°42' W 124°04'3 0.5 23.6
2014-Oct-23 16:00N 24°43' W 124°01'1 0.5 23.5
2014-Oct-23 14:00N 24°44' W 124°01'0 0.0 23.5
2014-Oct-23 13:00N 24°44' W 124°01'1 0.3 23.5
2014-Oct-23 11:00N 24°44' W 124°00'3 3.1 23.5
2014-Oct-23 10:00N 24°46' W 123°58'0 0.1 23.6
2014-Oct-23 01:00N 24°47' W 123°58'3 0.4 23.6
2014-Oct-22 17:00N 24°49' W 123°56'0 0.0 23.6
2014-Oct-22 16:00N 24°49' W 123°56'4 0.9 23.6
2014-Oct-22 12:00N 24°52' W 123°54'0 0.0 23.6
2014-Oct-22 11:00N 24°52' W 123°54'0 0.0 23.6
2014-Oct-22 10:00N 24°52' W 123°54'0 0.0 23.6
2014-Oct-22 06:00N 24°52' W 123°54'1 0.5 23.6
2014-Oct-22 04:00N 24°53' W 123°53'1 0.3 23.6
2014-Oct-22 02:00N 24°53' W 123°53'0 0.0 23.7
2014-Oct-22 01:00N 24°53' W 123°53'1 1.2 23.7
2014-Oct-22 00:00N 24°54' W 123°52'3 1.4 23.7
2014-Oct-21 22:00N 24°56' W 123°50'1 0.2 23.7
2014-Oct-21 18:00N 24°57' W 123°50'3 0.7 23.7
2014-Oct-21 14:00N 24°59' W 123°49'1 1.1 23.6
2014-Oct-21 13:00N 24°60' W 123°48'1 1.0 23.6
2014-Oct-21 12:00N 25°01' W 123°48'2 0.3 23.6
2014-Oct-21 07:00N 25°02' W 123°48'0 0.0 23.6
2014-Oct-21 06:00N 25°02' W 123°48'1 0.9 23.6
2014-Oct-21 05:00N 25°03' W 123°47'1 0.4 23.6
2014-Oct-21 03:00N 25°04' W 123°47'2 0.7 23.6
2014-Oct-21 00:00N 25°06' W 123°47'0 0.0 23.7
2014-Oct-20 22:00N 25°06' W 123°47'1 0.9 23.8
2014-Oct-20 21:00N 25°07' W 123°46'0 0.1 23.7
2014-Oct-20 20:00N 25°07' W 123°46'1 0.9 23.7
2014-Oct-20 19:00N 25°08' W 123°46'1 0.4 23.5
2014-Oct-20 17:00N 25°08' W 123°47'1 0.9 23.4
2014-Oct-20 16:00N 25°09' W 123°46'0 0.1 23.4
2014-Oct-20 13:00N 25°10' W 123°46'0 0.0 23.4
2014-Oct-20 10:00N 25°10' W 123°46'1 1.3 23.5
2014-Oct-20 09:00N 25°11' W 123°46'1 0.3 23.5
2014-Oct-20 05:00N 25°12' W 123°45'1 0.6 23.5
2014-Oct-20 04:00N 25°13' W 123°45'1 0.6 23.5
2014-Oct-20 02:00N 25°14' W 123°44'1 1.0 23.6
2014-Oct-20 01:00N 25°14' W 123°45'0 0.0 23.7
2014-Oct-20 00:00N 25°14' W 123°45'1 0.3 23.7
2014-Oct-19 22:00N 25°14' W 123°45'0 0.0 23.8
2014-Oct-19 21:00N 25°14' W 123°45'2 0.8 23.9
2014-Oct-19 19:00N 25°16' W 123°45'1 0.5 23.6
2014-Oct-19 18:00N 25°16' W 123°46'0 0.1 23.5
2014-Oct-19 14:00N 25°17' W 123°46'1 0.2 23.4
2014-Oct-19 11:00N 25°17' W 123°46'0 0.0 23.4
2014-Oct-19 10:00N 25°17' W 123°46'2 2.2 23.4
2014-Oct-19 09:00N 25°19' W 123°45'0 0.0 23.4
2014-Oct-19 08:00N 25°19' W 123°45'0 0.0 23.4
2014-Oct-19 05:00N 25°19' W 123°45'1 0.5 23.6
2014-Oct-19 02:00N 25°21' W 123°46'1 1.1 23.7
2014-Oct-19 01:00N 25°21' W 123°45'0 0.5 23.8
2014-Oct-19 00:00N 25°21' W 123°45'1 0.6 23.9
2014-Oct-18 22:00N 25°22' W 123°45'1 0.3 24.0
2014-Oct-18 18:00N 25°23' W 123°45'2 1.5 23.7
2014-Oct-18 17:00N 25°24' W 123°46'0 0.1 23.7
2014-Oct-18 14:00N 25°24' W 123°45'0 0.5 23.6
2014-Oct-18 13:00N 25°25' W 123°46'0 0.0 23.7
2014-Oct-18 12:00N 25°25' W 123°46'0 0.1 23.7
2014-Oct-18 11:00N 25°24' W 123°46'0 0.3 23.7
2014-Oct-18 10:00N 25°25' W 123°46'2 1.6 23.7
2014-Oct-18 09:00N 25°26' W 123°45'0 0.0 23.7
2014-Oct-18 05:00N 25°26' W 123°45'1 0.6 23.8
2014-Oct-18 03:00N 25°27' W 123°46'2 0.5 23.9
2014-Oct-18 00:00N 25°28' W 123°47'0 0.2 24.1
2014-Oct-17 23:00N 25°28' W 123°47'0 0.0 24.1
2014-Oct-17 22:00N 25°28' W 123°47'1 1.2 24.1
2014-Oct-17 21:00N 25°29' W 123°48'0 0.4 24.0
2014-Oct-17 20:00N 25°29' W 123°48'1 0.3 23.9
2014-Oct-17 18:00N 25°29' W 123°49'0 0.4 23.7
2014-Oct-17 17:00N 25°29' W 123°49'0 0.1 23.7
2014-Oct-17 14:00N 25°29' W 123°49'0 0.4 23.6
2014-Oct-17 13:00N 25°29' W 123°50'0 0.1 23.6
2014-Oct-17 12:00N 25°29' W 123°50'0 0.0 23.7
2014-Oct-17 11:00N 25°29' W 123°50'1 0.2 23.7
2014-Oct-17 06:00N 25°30' W 123°49'0 0.3 23.8
2014-Oct-17 05:00N 25°30' W 123°49'0 0.3 23.8
2014-Oct-17 04:00N 25°30' W 123°49'1 1.1 23.9
2014-Oct-17 03:00N 25°32' W 123°49'0 0.0 23.9
2014-Oct-17 02:00N 25°32' W 123°49'0 0.3 24.0
2014-Oct-17 01:00N 25°32' W 123°50'0 0.0 24.1
2014-Oct-17 00:00N 25°32' W 123°50'1 0.5 24.2
2014-Oct-16 21:00N 25°33' W 123°51'1 0.2 25.4
2014-Oct-16 18:00N 25°33' W 123°51'1 0.2 23.7
2014-Oct-16 12:00N 25°34' W 123°52'0 0.3 23.7
2014-Oct-16 11:00N 25°34' W 123°53'0 0.1 23.7
2014-Oct-16 09:00N 25°33' W 123°53'0 0.1 23.8
2014-Oct-16 06:00N 25°34' W 123°52'0 0.3 24.1
2014-Oct-16 05:00N 25°34' W 123°53'1 0.4 24.2
2014-Oct-16 01:00N 25°35' W 123°53'1 0.1 24.5
2014-Oct-15 19:00N 25°36' W 123°54'1 0.3 24.3
2014-Oct-15 17:00N 25°36' W 123°54'1 0.3 23.6
2014-Oct-15 14:00N 25°37' W 123°55'1 1.3 23.5
2014-Oct-15 13:00N 25°37' W 123°57'   23.5
Track history (hours):
 
Tides and Currents Weather Stations Pressure Air Temp Water Temp Dewpoint Dewpoint Depression Visibility Wind Speed Wind Dir Waves Ship Positions

Drifting buoy 46563

Last reported at 2014-Oct-25 13:00 UTC. Time now 2014-Oct-25 15:15 UTC.
Position N 24°41' W 124°16'.

Water temperature 23.3 ° C

Date/timePositionNaut miles runAvg speedWind from/ knotsBaromVisibWave heightAir tempDewpointWater temp
2014-Oct-25 13:00N 24°41' W 124°16'0 0.0 23.3
2014-Oct-25 12:00N 24°41' W 124°16'1 0.5 23.4
2014-Oct-25 11:00N 24°40' W 124°16'1 0.4 23.3
2014-Oct-25 09:00N 24°40' W 124°15'0 0.1 23.4
2014-Oct-25 05:00N 24°40' W 124°15'1 1.1 23.4
2014-Oct-25 04:00N 24°39' W 124°13'0 0.1 23.4
2014-Oct-25 01:00N 24°39' W 124°13'1 0.7 23.5
2014-Oct-24 23:00N 24°39' W 124°12'1 0.5 23.7
2014-Oct-24 22:00N 24°39' W 124°11'0 0.0 23.7
2014-Oct-24 21:00N 24°39' W 124°11'1 0.3 23.6
2014-Oct-24 17:00N 24°39' W 124°10'2 0.6 23.3
2014-Oct-24 14:00N 24°40' W 124°08'0 0.4 23.5
2014-Oct-24 13:00N 24°40' W 124°08'2 0.5 23.5
2014-Oct-24 09:00N 24°41' W 124°06'0 0.0 23.5
2014-Oct-24 06:00N 24°41' W 124°06'1 1.1 23.5
2014-Oct-24 05:00N 24°42' W 124°05'0 0.0 23.5
2014-Oct-24 04:00N 24°42' W 124°05'0 0.1 23.5
2014-Oct-24 01:00N 24°42' W 124°05'1 0.3 23.5
2014-Oct-23 23:00N 24°42' W 124°04'0 0.0 23.6
2014-Oct-23 22:00N 24°42' W 124°04'3 0.5 23.6
2014-Oct-23 16:00N 24°43' W 124°01'1 0.5 23.5
2014-Oct-23 14:00N 24°44' W 124°01'0 0.0 23.5
2014-Oct-23 13:00N 24°44' W 124°01'1 0.3 23.5
2014-Oct-23 11:00N 24°44' W 124°00'3 3.1 23.5
2014-Oct-23 10:00N 24°46' W 123°58'0 0.1 23.6
2014-Oct-23 01:00N 24°47' W 123°58'3 0.4 23.6
2014-Oct-22 17:00N 24°49' W 123°56'0 0.0 23.6
2014-Oct-22 16:00N 24°49' W 123°56'4 0.9 23.6
2014-Oct-22 12:00N 24°52' W 123°54'0 0.0 23.6
2014-Oct-22 11:00N 24°52' W 123°54'0 0.0 23.6
2014-Oct-22 10:00N 24°52' W 123°54'0 0.0 23.6
2014-Oct-22 06:00N 24°52' W 123°54'1 0.5 23.6
2014-Oct-22 04:00N 24°53' W 123°53'1 0.3 23.6
2014-Oct-22 02:00N 24°53' W 123°53'0 0.0 23.7
2014-Oct-22 01:00N 24°53' W 123°53'1 1.2 23.7
2014-Oct-22 00:00N 24°54' W 123°52'3 1.4 23.7
2014-Oct-21 22:00N 24°56' W 123°50'1 0.2 23.7
2014-Oct-21 18:00N 24°57' W 123°50'3 0.7 23.7
2014-Oct-21 14:00N 24°59' W 123°49'1 1.1 23.6
2014-Oct-21 13:00N 24°60' W 123°48'1 1.0 23.6
2014-Oct-21 12:00N 25°01' W 123°48'2 0.3 23.6
2014-Oct-21 07:00N 25°02' W 123°48'0 0.0 23.6
2014-Oct-21 06:00N 25°02' W 123°48'1 0.9 23.6
2014-Oct-21 05:00N 25°03' W 123°47'1 0.4 23.6
2014-Oct-21 03:00N 25°04' W 123°47'2 0.7 23.6
2014-Oct-21 00:00N 25°06' W 123°47'0 0.0 23.7
2014-Oct-20 22:00N 25°06' W 123°47'1 0.9 23.8
2014-Oct-20 21:00N 25°07' W 123°46'0 0.1 23.7
2014-Oct-20 20:00N 25°07' W 123°46'1 0.9 23.7
2014-Oct-20 19:00N 25°08' W 123°46'1 0.4 23.5
2014-Oct-20 17:00N 25°08' W 123°47'1 0.9 23.4
2014-Oct-20 16:00N 25°09' W 123°46'0 0.1 23.4
2014-Oct-20 13:00N 25°10' W 123°46'0 0.0 23.4
2014-Oct-20 10:00N 25°10' W 123°46'1 1.3 23.5
2014-Oct-20 09:00N 25°11' W 123°46'1 0.3 23.5
2014-Oct-20 05:00N 25°12' W 123°45'1 0.6 23.5
2014-Oct-20 04:00N 25°13' W 123°45'1 0.6 23.5
2014-Oct-20 02:00N 25°14' W 123°44'1 1.0 23.6
2014-Oct-20 01:00N 25°14' W 123°45'0 0.0 23.7
2014-Oct-20 00:00N 25°14' W 123°45'1 0.3 23.7
2014-Oct-19 22:00N 25°14' W 123°45'0 0.0 23.8
2014-Oct-19 21:00N 25°14' W 123°45'2 0.8 23.9
2014-Oct-19 19:00N 25°16' W 123°45'1 0.5 23.6
2014-Oct-19 18:00N 25°16' W 123°46'0 0.1 23.5
2014-Oct-19 14:00N 25°17' W 123°46'1 0.2 23.4
2014-Oct-19 11:00N 25°17' W 123°46'0 0.0 23.4
2014-Oct-19 10:00N 25°17' W 123°46'2 2.2 23.4
2014-Oct-19 09:00N 25°19' W 123°45'0 0.0 23.4
2014-Oct-19 08:00N 25°19' W 123°45'0 0.0 23.4
2014-Oct-19 05:00N 25°19' W 123°45'1 0.5 23.6
2014-Oct-19 02:00N 25°21' W 123°46'1 1.1 23.7
2014-Oct-19 01:00N 25°21' W 123°45'0 0.5 23.8
2014-Oct-19 00:00N 25°21' W 123°45'1 0.6 23.9
2014-Oct-18 22:00N 25°22' W 123°45'1 0.3 24.0
2014-Oct-18 18:00N 25°23' W 123°45'2 1.5 23.7
2014-Oct-18 17:00N 25°24' W 123°46'0 0.1 23.7
2014-Oct-18 14:00N 25°24' W 123°45'0 0.5 23.6
2014-Oct-18 13:00N 25°25' W 123°46'0 0.0 23.7
2014-Oct-18 12:00N 25°25' W 123°46'0 0.1 23.7
2014-Oct-18 11:00N 25°24' W 123°46'0 0.3 23.7
2014-Oct-18 10:00N 25°25' W 123°46'2 1.6 23.7
2014-Oct-18 09:00N 25°26' W 123°45'0 0.0 23.7
2014-Oct-18 05:00N 25°26' W 123°45'1 0.6 23.8
2014-Oct-18 03:00N 25°27' W 123°46'2 0.5 23.9
2014-Oct-18 00:00N 25°28' W 123°47'0 0.2 24.1
2014-Oct-17 23:00N 25°28' W 123°47'0 0.0 24.1
2014-Oct-17 22:00N 25°28' W 123°47'1 1.2 24.1
2014-Oct-17 21:00N 25°29' W 123°48'0 0.4 24.0
2014-Oct-17 20:00N 25°29' W 123°48'1 0.3 23.9
2014-Oct-17 18:00N 25°29' W 123°49'0 0.4 23.7
2014-Oct-17 17:00N 25°29' W 123°49'0 0.1 23.7
2014-Oct-17 14:00N 25°29' W 123°49'0 0.4 23.6
2014-Oct-17 13:00N 25°29' W 123°50'0 0.1 23.6
2014-Oct-17 12:00N 25°29' W 123°50'0 0.0 23.7
2014-Oct-17 11:00N 25°29' W 123°50'1 0.2 23.7
2014-Oct-17 06:00N 25°30' W 123°49'0 0.3 23.8
2014-Oct-17 05:00N 25°30' W 123°49'0 0.3 23.8
2014-Oct-17 04:00N 25°30' W 123°49'1 1.1 23.9
2014-Oct-17 03:00N 25°32' W 123°49'0 0.0 23.9
2014-Oct-17 02:00N 25°32' W 123°49'0 0.3 24.0
2014-Oct-17 01:00N 25°32' W 123°50'0 0.0 24.1
2014-Oct-17 00:00N 25°32' W 123°50'1 0.5 24.2
2014-Oct-16 21:00N 25°33' W 123°51'1 0.2 25.4
2014-Oct-16 18:00N 25°33' W 123°51'1 0.2 23.7
2014-Oct-16 12:00N 25°34' W 123°52'0 0.3 23.7
2014-Oct-16 11:00N 25°34' W 123°53'0 0.1 23.7
2014-Oct-16 09:00N 25°33' W 123°53'0 0.1 23.8
2014-Oct-16 06:00N 25°34' W 123°52'0 0.3 24.1
2014-Oct-16 05:00N 25°34' W 123°53'1 0.4 24.2
2014-Oct-16 01:00N 25°35' W 123°53'1 0.1 24.5
2014-Oct-15 19:00N 25°36' W 123°54'1 0.3 24.3
2014-Oct-15 17:00N 25°36' W 123°54'1 0.3 23.6
2014-Oct-15 14:00N 25°37' W 123°55'1 1.3 23.5
2014-Oct-15 13:00N 25°37' W 123°57'   23.5

Dump ship's entire track history